FW6665 Weather Reports


time (UTC)temp
F
wind
direction
speed
knots
gust
knots
rain 1hr
in
rain 24hr
in
rain mn
in
humidity
%
barometer
mb
20260506084704 53 313 0.9 8.7 0.00 0.00 0.00 68 1010.2
20260506084204 53 285 1.7 6.1 0.00 0.00 0.00 68 1010.3
20260506083704 52 0 1.7 6.1 0.00 0.00 0.00 69 1010.3
20260506082206 53 326 0.9 7.8 0.00 0.00 0.00 71 1010.3
20260506081704 53 306 0.9 7.8 0.00 0.00 0.00 72 1010.2
20260506081204 52 39 1.7 7.8 0.00 0.00 0.00 73 1010.2
20260506080204 51 285 1.7 7.8 0.00 0.00 0.00 73 1010.3
20260506072704 50 279 0.9 5.2 0.00 0.00 0.00 79 1010.3
20260506072204 49 264 0.0 5.2 0.00 0.00 0.00 79 1010.3
20260506071705 49 262 0.9 5.2 0.00 0.00 0.00 79 1010.3
20260506071205 49 264 0.9 4.3 0.00 0.00 0.00 80 1010.3
20260506070204 48 250 0.9 5.2 0.00 0.00 0.00 80 1010.1
20260506062205 47 289 1.7 7.8 0.00 0.00 0.00 80 1010.2
20260506061704 47 216 0.9 4.3 0.00 0.00 0.00 81 1010.2
20260506061205 47 243 0.9 5.2 0.00 0.00 0.00 81 1010.2
20260506060705 47 243 0.0 6.1 0.00 0.00 0.00 80 1010.2
20260506060204 47 240 0.9 6.1 0.00 0.00 0.00 80 1010.2
20260506051205 47 285 0.9 3.5 0.00 0.00 0.00 81 1009.9
20260506050205 47 281 0.0 4.3 0.00 0.00 0.00 82 1009.8
20260506044704 47 276 0.0 4.3 0.00 0.00 0.00 82 1009.9
20260506043709 47 289 0.9 5.2 0.00 0.00 0.00 82 1009.8
20260506042709 47 281 0.0 4.3 0.00 0.00 0.00 81 1009.8
20260506042205 47 281 0.0 4.3 0.00 0.00 0.00 81 1009.8
20260506041704 48 281 0.0 2.6 0.00 0.00 0.00 80 1009.7
20260506040204 48 278 0.0 3.5 0.00 0.00 0.00 80 1009.7
20260506035705 48 278 0.9 2.6 0.00 0.00 0.00 80 1009.6
20260506035206 48 274 0.0 3.5 0.00 0.00 0.00 80 1009.7
20260506034705 48 274 0.9 3.5 0.00 0.00 0.00 80 1009.6
20260506034205 48 272 0.0 3.5 0.00 0.00 0.00 80 1009.7
20260506033706 48 257 1.7 1.7 0.00 0.00 0.00 80 1009.7
20260506033204 48 61 0.9 1.7 0.00 0.00 0.00 80 1009.7
20260506032205 48 58 0.0 3.5 0.00 0.00 0.00 79 1009.7
20260506031704 48 55 0.0 3.5 0.00 0.00 0.00 79 1009.7
20260506031204 48 56 0.0 3.5 0.00 0.00 0.00 79 1009.7
20260506025703 49 292 0.0 3.5 0.00 0.00 0.00 80 1009.8
20260506025206 49 292 0.9 2.6 0.00 0.00 0.00 80 1009.9
20260506024705 49 309 0.9 2.6 0.00 0.00 0.00 80 1009.9
20260506024204 49 307 0.0 2.6 0.00 0.00 0.00 81 1009.9
20260506023704 49 307 0.0 2.6 0.00 0.00 0.00 81 1010.0
20260506023211 50 305 0.9 2.6 0.00 0.00 0.00 81 1010.1
20260506022705 50 299 0.0 2.6 0.00 0.00 0.00 81 1010.1
20260506022204 50 299 0.0 2.6 0.00 0.00 0.00 81 1010.0
20260506021705 50 303 0.0 2.6 0.00 0.00 0.00 81 1010.1
20260506021205 50 303 0.9 2.6 0.00 0.00 0.00 81 1010.1
20260506020704 50 303 0.0 2.6 0.00 0.00 0.00 81 1010.1
20260506015705 50 303 0.0 1.7 0.00 0.00 0.00 81 1010.1
20260506015205 50 302 0.0 1.7 0.00 0.00 0.00 81 1010.2
20260506014704 50 302 0.0 1.7 0.00 0.00 0.00 81 1010.2
20260506014204 50 302 0.0 0.9 0.00 0.00 0.00 81 1010.2
20260506013704 50 302 0.0 2.6 0.00 0.00 0.00 81 1010.2
20260506013205 50 302 0.0 2.6 0.00 0.00 0.00 81 1010.3
20260506012704 50 302 0.0 2.6 0.00 0.00 0.00 80 1010.3
20260506012204 50 302 0.9 1.7 0.00 0.00 0.00 80 1010.2
20260506011705 50 299 0.0 1.7 0.00 0.00 0.00 80 1010.2
20260506011204 50 299 0.0 1.7 0.00 0.00 0.00 80 1010.2
20260506010205 50 299 0.0 1.7 0.00 0.00 0.00 80 1010.2
20260506005704 50 299 0.0 1.7 0.00 0.00 0.00 80 1010.2
20260506005204 50 299 0.0 1.7 0.00 0.00 0.00 80 1010.2
20260506004704 50 299 0.0 1.7 0.00 0.00 0.00 80 1010.4
20260506004204 50 299 0.0 1.7 0.00 0.00 0.00 80 1010.3
20260506003704 50 299 0.0 1.7 0.00 0.00 0.00 79 1010.4
20260506003204 50 299 0.0 3.5 0.00 0.00 0.00 79 1010.4
20260506002705 50 299 0.0 3.5 0.00 0.00 0.00 79 1010.4
20260506002205 51 300 0.9 3.5 0.00 0.00 0.00 79 1010.5
20260506001705 51 299 0.9 1.7 0.00 0.00 0.00 79 1010.4
20260506001204 51 317 0.0 3.5 0.00 0.00 0.00 80 1010.4
20260506000707 51 316 0.0 3.5 0.00 0.00 0.00 80 1010.4
20260506000205 51 316 0.9 3.5 0.00 0.00 0.00 79 1010.5
20260505235704 51 317 0.9 2.6 0.00 0.00 0.00 79 1010.5
20260505235205 51 317 0.0 3.5 0.00 0.00 0.00 79 1010.5
20260505234708 51 317 0.0 3.5 0.00 0.00 0.00 79 1010.3
20260505234205 51 320 0.0 4.3 0.00 0.00 0.00 79 1010.3
20260505233705 51 320 0.0 4.3 0.00 0.00 0.00 79 1010.4
20260505233214 51 320 0.0 4.3 0.00 0.00 0.00 79 1010.4
20260505232704 51 306 0.9 2.6 0.00 0.00 0.00 79 1010.4
20260505232206 51 312 0.9 2.6 0.00 0.00 0.00 79 1010.4
20260505231705 52 313 0.0 2.6 0.00 0.00 0.00 79 1010.5
20260505230704 52 313 0.0 2.6 0.00 0.00 0.00 79 1010.5
20260505230209 52 313 0.0 3.5 0.00 0.00 0.00 80 1010.4
20260505225703 52 313 0.0 3.5 0.00 0.00 0.00 80 1010.4
20260505225205 52 313 0.9 1.7 0.00 0.00 0.00 80 1010.4
20260505224704 52 316 0.0 4.3 0.00 0.00 0.00 80 1010.4
20260505224205 52 316 0.0 4.3 0.00 0.00 0.00 80 1010.4
20260505222704 52 110 0.9 2.6 0.00 0.00 0.00 82 1010.5
20260505222204 52 135 0.9 1.7 0.00 0.00 0.00 82 1010.3
20260505221204 53 116 0.0 0.9 0.00 0.00 0.00 82 1010.4
20260505220704 53 116 0.0 2.6 0.00 0.00 0.00 81 1010.4
20260505220205 53 116 0.0 2.6 0.00 0.00 0.00 81 1010.4
20260505215716 53 116 0.0 2.6 0.00 0.00 0.00 80 1010.3
20260505214704 54 116 0.0 1.7 0.00 0.00 0.00 78 1010.3
20260505214214 54 121 0.9 0.9 0.00 0.00 0.00 76 1010.3
20260505213705 53 111 0.0 0.9 0.00 0.00 0.00 74 1010.3
20260505213204 53 111 0.0 0.9 0.00 0.00 0.00 73 1010.3
20260505212704 54 111 0.0 0.9 0.00 0.00 0.00 73 1010.2
20260505212236 54 111 0.0 0.9 0.00 0.00 0.00 73 1010.2
20260505211704 54 111 0.0 0.9 0.00 0.00 0.00 72 1010.1
20260505211204 54 111 0.0 0.9 0.00 0.00 0.00 72 1010.1
20260505210706 54 111 0.0 1.7 0.00 0.00 0.00 72 1010.2
20260505205704 54 111 0.0 1.7 0.00 0.00 0.00 71 1010.1
20260505205204 54 111 0.0 1.7 0.00 0.00 0.00 71 1010.2
20260505204709 54 111 0.0 1.7 0.00 0.00 0.00 70 1010.3
20260505204205 54 111 0.0 0.9 0.00 0.00 0.00 71 1010.1
20260505203704 54 111 0.0 1.7 0.00 0.00 0.00 71 1010.1
20260505203204 55 111 0.0 1.7 0.00 0.00 0.00 71 1010.0
20260505202704 55 111 0.0 1.7 0.00 0.00 0.00 72 1010.0
20260505202205 55 111 0.0 1.7 0.00 0.00 0.00 72 1010.0
20260505201204 55 111 0.0 0.9 0.00 0.00 0.00 71 1009.9
20260505200705 55 111 0.0 0.9 0.00 0.00 0.00 71 1009.9
20260505200204 55 111 0.0 2.6 0.00 0.00 0.00 71 1009.8
20260505195705 55 111 0.0 2.6 0.00 0.00 0.00 70 1009.8
20260505195205 55 111 0.0 2.6 0.00 0.00 0.00 70 1009.7
20260505194704 56 111 0.0 2.6 0.00 0.00 0.00 69 1009.6
20260505194204 56 111 0.0 2.6 0.00 0.00 0.00 69 1009.5
20260505193704 56 111 0.0 2.6 0.00 0.00 0.00 69 1009.4
20260505193204 56 111 0.0 0.9 0.00 0.00 0.00 68 1009.3
20260505192704 56 111 0.0 1.7 0.00 0.00 0.00 68 1009.3
20260505192205 56 111 0.0 1.7 0.00 0.00 0.00 68 1009.3
20260505191204 56 111 0.0 0.9 0.00 0.00 0.00 67 1009.0
20260505190704 56 111 0.0 0.9 0.00 0.00 0.00 66 1009.0
20260505190204 56 111 0.0 0.9 0.00 0.00 0.00 66 1008.9
20260505185707 57 111 0.0 1.7 0.00 0.00 0.00 66 1009.1
20260505185205 57 111 0.0 1.7 0.00 0.00 0.00 66 1008.9
20260505184706 57 111 0.0 1.7 0.00 0.00 0.00 65 1008.9
20260505184205 57 111 0.0 1.7 0.00 0.00 0.00 65 1008.8
20260505183204 57 111 0.0 0.9 0.00 0.00 0.00 64 1008.7
20260505182704 58 111 0.0 0.9 0.00 0.00 0.00 63 1008.8
20260505181704 58 111 0.0 0.9 0.00 0.00 0.00 63 1008.7
20260505181204 58 111 0.0 0.9 0.00 0.00 0.00 62 1008.8
20260505180705 58 111 0.0 0.9 0.00 0.00 0.00 61 1008.8
20260505174704 58 111 0.0 2.6 0.00 0.00 0.00 60 1008.9
20260505174205 58 111 0.0 2.6 0.00 0.00 0.00 59 1008.8
20260505173705 58 111 0.0 1.7 0.00 0.00 0.00 59 1008.8
20260505173203 58 111 0.0 1.7 0.00 0.00 0.00 58 1008.8
20260505172704 58 111 0.0 1.7 0.00 0.00 0.00 58 1008.8
20260505172205 59 111 0.0 1.7 0.00 0.00 0.00 57 1008.9
20260505171704 59 111 0.0 1.7 0.00 0.00 0.00 56 1008.8
20260505171205 59 111 0.0 1.7 0.00 0.00 0.00 56 1008.9
20260505170704 59 111 0.9 1.7 0.00 0.00 0.00 57 1008.9
20260505170204 59 113 0.0 1.7 0.00 0.00 0.00 57 1008.9
20260505165727 59 113 0.0 1.7 0.00 0.00 0.00 58 1009.0
20260505165204 59 113 0.9 1.7 0.00 0.00 0.00 57 1009.1
20260505164704 59 110 0.0 1.7 0.00 0.00 0.00 57 1009.1
20260505164204 59 110 0.0 1.7 0.00 0.00 0.00 56 1008.9
20260505163209 60 113 0.0 2.6 0.00 0.00 0.00 56 1008.9
20260505162704 60 113 0.0 2.6 0.00 0.00 0.00 56 1008.9
20260505162204 60 113 0.0 2.6 0.00 0.00 0.00 56 1008.9
20260505161729 60 113 0.0 6.1 0.00 0.00 0.00 56 1008.9
20260505160705 61 111 0.0 6.1 0.00 0.00 0.00 55 1008.9
20260505160204 61 110 1.7 3.5 0.00 0.00 0.00 53 1008.9
20260505153231 62 154 0.9 1.7 0.00 0.00 0.00 56 1008.9
20260505152704 61 155 0.0 2.6 0.00 0.00 0.00 57 1009.1
20260505152215 61 155 0.9 2.6 0.00 0.00 0.00 55 1009.1
20260505151705 61 157 0.9 1.7 0.00 0.00 0.00 55 1009.0
20260505151204 61 161 0.9 2.6 0.00 0.00 0.00 54 1009.1
20260505150704 62 161 0.9 2.6 0.00 0.00 0.00 54 1009.1
20260505150203 62 157 0.0 3.5 0.00 0.00 0.00 55 1009.1
20260505140205 62 125 0.0 4.3 0.00 0.00 0.00 55 1009.2
20260505130205 63 127 0.0 4.3 0.00 0.00 0.00 54 1009.5
20260505124704 63 138 0.9 2.6 0.00 0.00 0.00 54 1009.5
20260505124205 63 258 0.9 2.6 0.00 0.00 0.00 55 1009.5
20260505123704 63 255 0.0 2.6 0.00 0.00 0.00 54 1009.5
20260505123204 63 257 0.0 1.7 0.00 0.00 0.00 56 1009.5
20260505122705 63 258 0.0 1.7 0.00 0.00 0.00 56 1009.5
20260505122205 63 259 0.0 1.7 0.00 0.00 0.00 56 1009.5
20260505121706 63 258 0.9 1.7 0.00 0.00 0.00 56 1009.6
20260505121204 63 259 0.9 1.7 0.00 0.00 0.00 57 1009.5
20260505120704 63 259 0.9 2.6 0.00 0.00 0.00 56 1009.5
20260505120204 64 259 0.0 2.6 0.00 0.00 0.00 56 1009.4
20260505115704 63 259 0.0 2.6 0.00 0.00 0.00 56 1009.5
20260505115204 63 247 0.9 4.3 0.00 0.00 0.00 57 1009.6
20260505114704 63 247 0.0 4.3 0.00 0.00 0.00 56 1009.5
20260505114205 64 275 0.9 4.3 0.00 0.00 0.00 56 1009.6
20260505113705 64 292 1.7 3.5 0.00 0.00 0.00 56 1009.5
20260505111704 63 288 1.7 3.5 0.00 0.00 0.00 60 1009.7
20260505111204 62 285 1.7 3.5 0.00 0.00 0.00 59 1009.8
20260505110704 62 303 0.0 4.3 0.00 0.00 0.00 61 1009.7
20260505110204 62 303 0.9 5.2 0.00 0.00 0.00 62 1009.8
20260505102205 61 292 0.9 4.3 0.00 0.00 0.00 66 1010.1
20260505101711 60 290 0.9 4.3 0.00 0.00 0.00 66 1010.1
20260505101204 60 295 1.7 7.8 0.00 0.00 0.00 67 1010.2
20260505100704 60 269 1.7 7.8 0.00 0.00 0.00 68 1010.2
20260505100204 59 228 0.9 7.8 0.00 0.00 0.00 69 1010.2
20260505095704 60 238 1.7 5.2 0.00 0.00 0.00 68 1010.3
20260505095204 60 234 1.7 5.2 0.00 0.00 0.00 67 1010.2
20260505094704 60 271 1.7 5.2 0.00 0.00 0.00 67 1010.3
20260505094205 60 286 1.7 3.5 0.00 0.00 0.00 68 1010.3
20260505093704 60 295 1.7 3.5 0.00 0.00 0.00 69 1010.3
20260505093204 60 292 0.9 3.5 0.00 0.00 0.00 71 1010.3
20260505092705 59 288 0.9 3.5 0.00 0.00 0.00 71 1010.3
20260505092204 59 298 0.9 2.6 0.00 0.00 0.00 72 1010.3
20260505091704 58 300 0.9 2.6 0.00 0.00 0.00 74 1010.5
20260505091204 57 299 0.0 2.6 0.00 0.00 0.00 74 1010.4
20260505090204 57 298 0.9 1.7 0.00 0.00 0.00 73 1010.5
20260505085704 57 299 0.9 1.7 0.00 0.00 0.00 75 1010.5
20260505085205 56 299 0.9 1.7 0.00 0.00 0.00 75 1010.6